This is the latest recevied weather packets stored in our database for station/object WD9EKA. If no packets are shown the sender has not sent any weather packets the latest 10 day(s).
| Time | Temp. | Humidity | Pressure | Rain* | Wind** | Luminosity | Snow |
|---|---|---|---|---|---|---|---|
| 1787375853 | 18.89° C | 99% | 1010.2 hPa | 0 mm | - | - | - |
| 1787375493 | 18.33° C | 99% | 1010.4 hPa | 0 mm | - | - | - |
| 1787375133 | 18.33° C | 99% | 1010.2 hPa | 0 mm | - | - | - |
| 1787374773 | 18.89° C | 99% | 1010.4 hPa | 0 mm | - | - | - |
| 1787374413 | 18.33° C | 99% | 1010.6 hPa | 0 mm | - | - | - |
| 1787374053 | 18.33° C | 99% | 1010.5 hPa | 0 mm | - | - | - |
| 1787373693 | 17.78° C | 99% | 1010.4 hPa | 0 mm | - | - | - |
| 1787373333 | 18.33° C | 99% | 1010.5 hPa | 0 mm | - | - | - |
| 1787372973 | 18.33° C | 99% | 1010.4 hPa | 0 mm | - | - | - |
| 1787372613 | 18.33° C | 99% | 1010.5 hPa | 0 mm | - | - | - |
| 1787372253 | 18.33° C | 99% | 1010.5 hPa | 0 mm | - | - | - |
| 1787371893 | 18.89° C | 99% | 1010.3 hPa | 0 mm | - | - | - |
| 1787371533 | 18.89° C | 99% | 1010.1 hPa | 0 mm | - | - | - |
| 1787371173 | 18.33° C | 99% | 1010.2 hPa | 0 mm | - | - | - |
| 1787370813 | 18.33° C | 99% | 1010.2 hPa | 0 mm | - | - | - |
| 1787370453 | 18.33° C | 99% | 1010.1 hPa | 0 mm | - | - | - |
| 1787370093 | 18.33° C | 99% | 1009.9 hPa | 0 mm | - | - | - |
| 1787369733 | 18.89° C | 99% | 1010 hPa | 0 mm | - | - | - |
| 1787368745 | 18.89° C | 99% | 1010 hPa | 0 mm | - | - | - |
| 1787368413 | 18.33° C | 99% | 1009.8 hPa | 0 mm | - | - | - |
| 1787367693 | 18.89° C | 99% | 1010.1 hPa | 0 mm | - | - | - |
| 1787365450 | 19.44° C | 99% | 1010.3 hPa | 0 mm | - | - | - |
| 1787365129 | 19.44° C | 99% | 1010.3 hPa | 0 mm | - | - | - |
| 1787364810 | 19.44° C | 99% | 1010.1 hPa | 0 mm | - | - | - |
| 1787364490 | 19.44° C | 99% | 1010.2 hPa | 0 mm | - | - | - |
* Rain latest hour (hover to see other rain measurements)
** Current wind speed in m/s (hover to see current wind gust speed)